Location: Emblem
(62.4273°N, 6.4710°E)
Time: 07:50:05
(UTC+02:00)

Transit 2A - Pass Details

Date: 06 March 2024
Orbit: 596 x 956 km, 66.7° (Epoch: 24 April)

Event Time Altitude Azimuth Distance (km) Brightness Sun altitude
Rises 21:51:29 0° 275° (W) 2,868 9.8 -24.5°
Reaches altitude 10° 21:53:45 10° 281° (W) 1,987 8.9 -24.7°
Maximum altitude 21:58:05 50° 357° (N) 828 6.4 -25.1°
Enters shadow 21:59:10 41° 39° (NE) 953 6.4 -25.2°
